Location: Baumgarten
(49.0970°N, 12.7493°E)
Time: 08:21:15
(UTC+00:00)

Cosmos 1943 Rocket - Pass Details

Date: 05 July 2020
Orbit: 811 x 845 km, 71.0° (Epoch: 04 August)

Event Time Altitude Azimuth Distance (km) Brightness Sun altitude
Rises 21:09:11 0° 335° (NNW) 3,416 7.4 -13.0°
Reaches altitude 10° 21:12:26 10° 353° (N) 2,478 5.8 -13.3°
Maximum altitude 21:16:22 19° 37° (NE) 1,931 4.4 -13.6°
Drops below altitude 10° 21:20:16 10° 81° (E) 2,468 4.4 -13.9°
Enters shadow 21:23:09 - 98° (E) 3,288 4.9 -14.1°
